Location: ??
(35.5052°N, 139.7262°E)
Time: 17:42:55
(UTC+00:00)

Cosmos 1932 - Pass Details

Date: 21 October 2021
Orbit: 943 x 987 km, 65.0° (Epoch: 01 December)

Event Time Altitude Azimuth Distance (km) Brightness Sun altitude
Rises 09:39:39 0° 341° (NNW) 3,615 7.7 -21.3°
Reaches altitude 10° 09:42:44 10° 355° (N) 2,671 6.9 -21.9°
Enters shadow 09:46:45 23° 35° (NE) 1,889 5.7 -22.7°
